{"data":{"norad_id":68443,"intl_designator":"2026-067AD","name":"TRANSPORTER-16 OBJECT AD","alt_names":[],"object_type":"PAYLOAD","status":"ACTIVE","operator":null,"country":"TBD","launch_date":"2026-03-30","launch_site_code":"AFWTR","launch_vehicle":null,"mission":null,"orbit_class":"UNKNOWN","rcs_meters":null,"size_class":null,"mass_kg":null,"dimensions":null,"purposes":[],"wikipedia_slug":null,"has_3d_model":false,"image_url":null,"decayed_at":null,"tle_current":{"epoch":"2026-05-24T20:06:12.270528Z","epoch_age_seconds":92580,"freshness":"FRESH","line1":"1 68443U 26067AD  26144.83764202  .00004385  00000+0  22288-3 0  9999","line2":"2 68443  97.4532 103.5801 0005772 135.5546 224.6152 15.17365297  8393","mean_motion":15.17365297,"eccentricity":0.0005772,"inclination_deg":97.4532,"raan_deg":103.5801,"arg_perigee_deg":135.5546,"mean_anomaly_deg":224.6152,"bstar":0.00022288,"rev_number":839,"period_min":94.90134002979,"perigee_km":509.82902025572,"apogee_km":517.78508046745,"semimajor_km":6891.9440503616,"source":"CELESTRAK","updated_at":"2026-05-25T13:38:07.839588Z"}}}